TimeCST,TemperatureF,Dew PointF,Humidity,Sea Level PressureIn,VisibilityMPH,Wind Direction,Wind SpeedMPH,Gust SpeedMPH,PrecipitationIn,Events,Conditions,WindDirDegrees,DateUTC
12:14 AM,15.8,12.2,86,30.03,4.0,WNW,20.7,29.9,N/A,Snow,Light Snow,300,2012-11-23 06:14:00
12:33 AM,15.8,10.4,79,30.04,5.0,WNW,18.4,33.4,N/A,Snow,Light Snow,300,2012-11-23 06:33:00
12:54 AM,15.8,10.4,79,30.04,3.0,NW,26.5,33.4,N/A,Snow,Light Snow,310,2012-11-23 06:54:00
1:13 AM,15.8,10.4,79,30.06,4.0,NW,23.0,33.4,N/A,,Haze,310,2012-11-23 07:13:00
1:33 AM,15.8,10.4,79,30.06,5.0,NW,24.2,31.1,N/A,,Haze,310,2012-11-23 07:33:00
1:54 AM,15.8,10.4,79,30.08,5.0,NW,24.2,28.8,N/A,Snow,Light Snow,310,2012-11-23 07:54:00
2:13 AM,14.0,10.4,86,30.09,5.0,WNW,21.9,33.4,N/A,Snow,Light Snow,300,2012-11-23 08:13:00
2:33 AM,14.0,8.6,79,30.11,5.0,NW,23.0,29.9,N/A,Snow,Light Snow,310,2012-11-23 08:33:00
2:54 AM,14.0,8.6,79,30.13,7.0,WNW,20.7,-,N/A,Snow,Light Snow,300,2012-11-23 08:54:00
3:13 AM,14.0,10.4,86,30.14,4.0,NW,20.7,31.1,N/A,Snow,Light Snow,310,2012-11-23 09:13:00
3:33 AM,14.0,10.4,86,30.14,4.0,NW,21.9,27.6,N/A,Snow,Light Snow,320,2012-11-23 09:33:00
3:54 AM,14.0,8.6,79,30.15,4.0,NW,23.0,27.6,N/A,Snow,Light Snow,320,2012-11-23 09:54:00
4:13 AM,14.0,10.4,86,30.16,4.0,NW,23.0,28.8,N/A,Snow,Light Snow,320,2012-11-23 10:13:00
4:33 AM,14.0,10.4,86,30.17,5.0,NW,19.6,27.6,N/A,Snow,Light Snow,320,2012-11-23 10:33:00
4:54 AM,14.0,10.4,86,30.18,7.0,NW,21.9,29.9,N/A,Snow,Light Snow,320,2012-11-23 10:54:00
5:13 AM,14.0,10.4,86,30.19,5.0,NW,23.0,31.1,N/A,Snow,Light Snow,320,2012-11-23 11:13:00
5:33 AM,14.0,8.6,79,30.21,7.0,NW,17.3,31.1,N/A,,Overcast,320,2012-11-23 11:33:00
5:54 AM,14.0,8.6,79,30.21,10.0,NW,20.7,27.6,N/A,,Overcast,320,2012-11-23 11:54:00
6:13 AM,14.0,8.6,79,30.22,10.0,NW,18.4,28.8,N/A,Snow,Light Snow,320,2012-11-23 12:13:00
6:33 AM,14.0,10.4,86,30.23,10.0,NW,16.1,27.6,N/A,,Overcast,320,2012-11-23 12:33:00
6:54 AM,15.8,10.4,79,30.23,10.0,NW,16.1,26.5,N/A,,Overcast,310,2012-11-23 12:54:00
7:13 AM,14.0,10.4,86,30.24,10.0,NW,16.1,21.9,N/A,,Overcast,320,2012-11-23 13:13:00
7:33 AM,15.8,10.4,79,30.25,10.0,NW,18.4,21.9,N/A,,Overcast,310,2012-11-23 13:33:00
7:54 AM,15.8,10.4,79,30.26,10.0,NW,18.4,25.3,N/A,,Overcast,310,2012-11-23 13:54:00
8:13 AM,15.8,10.4,79,30.27,10.0,NW,18.4,21.9,N/A,Snow,Light Snow,310,2012-11-23 14:13:00
8:33 AM,15.8,10.4,79,30.27,10.0,NW,20.7,24.2,N/A,,Overcast,310,2012-11-23 14:33:00
8:54 AM,15.8,10.4,79,30.29,10.0,NW,19.6,25.3,N/A,,Overcast,310,2012-11-23 14:54:00
9:13 AM,15.8,10.4,79,30.30,10.0,NW,17.3,25.3,N/A,Snow,Light Snow,310,2012-11-23 15:13:00
9:34 AM,15.8,10.4,79,30.31,10.0,NW,17.3,-,N/A,Snow,Light Snow,320,2012-11-23 15:34:00
9:53 AM,15.8,10.4,79,30.32,10.0,NW,19.6,23.0,N/A,Snow,Light Snow,320,2012-11-23 15:53:00
10:14 AM,17.6,10.4,73,30.32,10.0,NW,13.8,-,N/A,Snow,Light Snow,320,2012-11-23 16:14:00
10:33 AM,17.6,12.2,79,30.33,10.0,NW,17.3,21.9,N/A,Snow,Light Snow,310,2012-11-23 16:33:00
10:53 AM,17.6,10.4,73,30.33,10.0,WNW,17.3,-,N/A,Snow,Light Snow,300,2012-11-23 16:53:00
11:13 AM,17.6,10.4,73,30.34,10.0,WNW,16.1,24.2,N/A,,Overcast,300,2012-11-23 17:13:00
11:34 AM,17.6,10.4,73,30.33,10.0,NW,20.7,24.2,N/A,,Overcast,310,2012-11-23 17:34:00
11:53 AM,17.6,10.4,73,30.33,10.0,NW,17.3,-,N/A,Snow,Light Snow,310,2012-11-23 17:53:00
12:13 PM,19.4,12.2,74,30.33,10.0,NW,17.3,-,N/A,,Overcast,310,2012-11-23 18:13:00
12:33 PM,19.4,10.4,68,30.33,10.0,NW,17.3,21.9,N/A,,Overcast,310,2012-11-23 18:33:00
12:53 PM,19.4,12.2,74,30.33,10.0,NW,16.1,-,N/A,,Overcast,310,2012-11-23 18:53:00
1:13 PM,19.4,12.2,74,30.33,10.0,NW,13.8,-,N/A,,Mostly Cloudy,310,2012-11-23 19:13:00
1:34 PM,19.4,10.4,68,30.32,10.0,NW,18.4,-,N/A,,Mostly Cloudy,310,2012-11-23 19:34:00
1:53 PM,19.4,10.4,68,30.32,10.0,WNW,16.1,-,N/A,,Scattered Clouds,300,2012-11-23 19:53:00
2:13 PM,19.4,10.4,68,30.32,10.0,WNW,16.1,-,N/A,,Clear,290,2012-11-23 20:13:00
2:34 PM,17.6,10.4,73,30.33,10.0,WNW,17.3,-,N/A,,Mostly Cloudy,290,2012-11-23 20:34:00
2:53 PM,17.6,10.4,73,30.34,10.0,WNW,16.1,23.0,N/A,,Mostly Cloudy,300,2012-11-23 20:53:00
3:13 PM,17.6,10.4,73,30.34,10.0,WNW,17.3,21.9,N/A,,Mostly Cloudy,300,2012-11-23 21:13:00
3:33 PM,15.8,8.6,73,30.35,10.0,WNW,13.8,-,N/A,,Mostly Cloudy,300,2012-11-23 21:33:00
3:53 PM,15.8,8.6,73,30.36,10.0,WNW,13.8,19.6,N/A,,Overcast,300,2012-11-23 21:53:00
4:14 PM,15.8,8.6,73,30.36,10.0,NW,16.1,-,N/A,,Overcast,310,2012-11-23 22:14:00
4:33 PM,14.0,8.6,79,30.37,10.0,WNW,10.4,-,N/A,,Overcast,290,2012-11-23 22:33:00
4:53 PM,12.2,6.8,79,30.37,10.0,WNW,9.2,-,N/A,,Overcast,300,2012-11-23 22:53:00
5:14 PM,10.4,6.8,85,30.36,10.0,WNW,8.1,-,N/A,,Scattered Clouds,300,2012-11-23 23:14:00
5:33 PM,10.4,6.8,85,30.36,10.0,WNW,6.9,-,N/A,,Clear,300,2012-11-23 23:33:00
5:53 PM,10.4,6.8,85,30.37,10.0,WNW,6.9,-,N/A,,Clear,290,2012-11-23 23:53:00
6:13 PM,8.6,5.0,85,30.37,10.0,WNW,4.6,-,N/A,,Scattered Clouds,290,2012-11-24 00:13:00
6:33 PM,8.6,5.0,85,30.37,10.0,WNW,5.8,-,N/A,,Scattered Clouds,300,2012-11-24 00:33:00
6:54 PM,8.6,5.0,85,30.36,10.0,WNW,3.5,-,N/A,,Mostly Cloudy,300,2012-11-24 00:54:00
7:13 PM,8.6,5.0,85,30.36,7.0,WNW,4.6,-,N/A,Snow,Light Snow,300,2012-11-24 01:13:00
7:33 PM,6.8,5.0,92,30.37,7.0,WNW,4.6,-,N/A,Snow,Light Snow,290,2012-11-24 01:33:00
7:54 PM,6.8,3.2,85,30.37,10.0,WNW,6.9,-,N/A,,Overcast,290,2012-11-24 01:54:00
8:13 PM,6.8,5.0,92,30.36,10.0,WNW,6.9,-,N/A,,Overcast,290,2012-11-24 02:13:00
8:33 PM,8.6,5.0,85,30.36,10.0,WNW,4.6,-,N/A,Snow,Light Snow,300,2012-11-24 02:33:00
8:54 PM,6.8,5.0,92,30.35,10.0,NW,4.6,-,N/A,,Overcast,310,2012-11-24 02:54:00
9:13 PM,6.8,3.2,85,30.35,10.0,WNW,4.6,-,N/A,,Mostly Cloudy,300,2012-11-24 03:13:00
9:33 PM,6.8,3.2,85,30.34,10.0,NW,4.6,-,N/A,,Scattered Clouds,310,2012-11-24 03:33:00
9:54 PM,6.8,3.2,85,30.34,10.0,Calm,Calm,-,N/A,,Clear,0,2012-11-24 03:54:00
10:13 PM,6.8,3.2,85,30.33,10.0,NNW,3.5,-,N/A,,Clear,330,2012-11-24 04:13:00
10:34 PM,6.8,3.2,85,30.34,10.0,NNW,3.5,-,N/A,,Clear,330,2012-11-24 04:34:00
10:53 PM,3.2,1.4,92,30.34,10.0,NW,4.6,-,N/A,,Clear,310,2012-11-24 04:53:00
11:13 PM,5.0,3.2,92,30.33,10.0,Calm,Calm,-,N/A,,Scattered Clouds,0,2012-11-24 05:13:00
11:34 PM,1.4,-0.4,92,30.33,10.0,Calm,Calm,-,N/A,,Mostly Cloudy,0,2012-11-24 05:34:00
11:53 PM,3.2,1.4,92,30.32,10.0,Calm,Calm,-,N/A,,Scattered Clouds,0,2012-11-24 05:53:00